Weather History for KAQP - November, 2013

Change the Weather History Date:

Wednesday, November 20, 2013

  Actual Average Record
Temperature  
Mean Temperature 40 °F -  
Max Temperature 53 °F 34 °F 55 °F (2012)
Min Temperature 26 °F 18 °F -7 °F (2011)
Degree Days  
Heating Degree Days 24    
Moisture  
Dew Point 28 °F    
Average Humidity 59    
Maximum Humidity 86    
Minimum Humidity 38    
Precipitation  
Precipitation 0.00 in - - ()
Sea Level Pressure  
Sea Level Pressure 29.83 in    
Wind  
Wind Speed 12 mph (SW)    
Max Wind Speed 24 mph    
Max Gust Speed 29 mph    
Visibility 10 miles    
Events      
Averages and records for this station are not official NWS values.
T = Trace of Precipitation, MM = Missing Value Source: NWS Daily Summary

Daily Weather History Graph

Daily Weather History Graph

Search for Another Location

Airport or City:

Trip Planner

Search our weather history database for the weather conditions in past years. The results will help you decide how hot, cold, wet, or windy it might be!

Date:

Astronomy

Nov. 20, 2013 Rise Set
Actual Time 7:29 AM CST 4:49 PM CST
Civil Twilight 6:57 AM CST 5:22 PM CST
Nautical Twilight 6:20 AM CST 5:58 PM CST
Astronomical Twilight 5:45 AM CST 6:33 PM CST
Moon 7:33 PM CST (11/20) 9:55 AM CST (11/20)
Length of Visible Light 10h 25m
Length of Day
9h 20m
Waning Gibbous, 91% of the Moon is Illuminated
Nov 20
Waning Gibbous
Nov 25
Last Quarter
Dec 2
New
Dec 9
First Quarter
Dec 17
Full

Hourly Weather History & Observations

Time (CST) Temp. Windchill Dew Point Humidity Pressure Visibility Wind Dir Wind Speed Gust Speed Precip Events Conditions
12:13 AM 51.8 °F - 26.6 °F 38% 29.69 in 10.0 mi South 18.4 mph 24.2 mph N/A   Clear
12:33 AM 50.0 °F - 26.6 °F 40% 29.69 in 10.0 mi South 15.0 mph 27.6 mph N/A   Clear
12:53 AM 50.0 °F - 26.6 °F 40% 29.69 in 10.0 mi South 15.0 mph 23.0 mph N/A   Clear
1:13 AM 50.0 °F - 26.6 °F 40% 29.70 in 10.0 mi South 15.0 mph 23.0 mph N/A   Clear
1:33 AM 50.0 °F - 26.6 °F 40% 29.70 in 10.0 mi South 18.4 mph 27.6 mph N/A   Clear
1:53 AM 50.0 °F - 28.4 °F 43% 29.71 in 10.0 mi South 17.3 mph 24.2 mph N/A   Clear
2:13 AM 48.2 °F - 28.4 °F 46% 29.71 in 10.0 mi South 13.8 mph 18.4 mph N/A   Clear
2:33 AM 48.2 °F - 28.4 °F 46% 29.72 in 10.0 mi South 10.4 mph 17.3 mph N/A   Clear
2:53 AM 48.2 °F - 28.4 °F 46% 29.72 in 10.0 mi South 11.5 mph 19.6 mph N/A   Clear
3:13 AM 48.2 °F - 28.4 °F 46% 29.73 in 10.0 mi South 13.8 mph 17.3 mph N/A   Clear
3:33 AM 48.2 °F - 28.4 °F 46% 29.72 in 10.0 mi South 12.7 mph 20.7 mph N/A   Clear
3:53 AM 48.2 °F - 28.4 °F 46% 29.73 in 10.0 mi South 10.4 mph - N/A   Clear
4:13 AM 48.2 °F - 28.4 °F 46% 29.73 in 10.0 mi SSE 9.2 mph - N/A   Clear
4:33 AM 46.4 °F 40.7 °F 28.4 °F 50% 29.72 in 10.0 mi South 12.7 mph 17.3 mph N/A   Clear
4:53 AM 46.4 °F 41.1 °F 28.4 °F 50% 29.72 in 10.0 mi South 11.5 mph 16.1 mph N/A   Clear
5:14 AM 46.4 °F 41.9 °F 28.4 °F 50% 29.73 in 10.0 mi SSE 9.2 mph - N/A   Clear
5:33 AM 46.4 °F 41.9 °F 28.4 °F 50% 29.73 in 10.0 mi SSE 9.2 mph - N/A   Clear
5:53 AM 44.6 °F 42.2 °F 28.4 °F 53% 29.74 in 10.0 mi SE 4.6 mph - N/A   Clear
6:13 AM 44.6 °F 40.7 °F 28.4 °F 53% 29.75 in 10.0 mi SE 6.9 mph - N/A   Clear
6:33 AM 44.6 °F 40.7 °F 28.4 °F 53% 29.75 in 10.0 mi SSE 6.9 mph - N/A   Clear
6:53 AM 42.8 °F 40.1 °F 30.2 °F 61% 29.76 in 10.0 mi SE 4.6 mph - N/A   Clear
7:13 AM 42.8 °F 38.0 °F 30.2 °F 61% 29.76 in 10.0 mi SSE 8.1 mph - N/A   Clear
7:33 AM 42.8 °F 38.6 °F 30.2 °F 61% 29.76 in 10.0 mi SSE 6.9 mph - N/A   Clear
7:53 AM 42.8 °F 38.0 °F 30.2 °F 61% 29.77 in 10.0 mi SSE 8.1 mph - N/A   Clear
8:13 AM 42.8 °F 37.5 °F 30.2 °F 61% 29.77 in 10.0 mi SSE 9.2 mph - N/A   Clear
8:33 AM 42.8 °F 38.0 °F 30.2 °F 61% 29.79 in 10.0 mi SSE 8.1 mph - N/A   Clear
8:53 AM 42.8 °F 38.0 °F 30.2 °F 61% 29.79 in 10.0 mi SSE 8.1 mph - N/A   Clear
9:14 AM 44.6 °F 40.2 °F 30.2 °F 57% 29.80 in 10.0 mi SSE 8.1 mph - N/A   Scattered Clouds
9:33 AM 44.6 °F 40.2 °F 30.2 °F 57% 29.80 in 10.0 mi South 8.1 mph - N/A   Scattered Clouds
9:54 AM 44.6 °F 40.2 °F 30.2 °F 57% 29.81 in 10.0 mi South 8.1 mph - N/A   Clear
10:13 AM 46.4 °F 41.9 °F 30.2 °F 53% 29.81 in 10.0 mi South 9.2 mph - N/A   Clear
10:34 AM 48.2 °F - 30.2 °F 50% 29.81 in 10.0 mi South 8.1 mph - N/A   Clear
10:54 AM 48.2 °F - 30.2 °F 50% 29.82 in 10.0 mi South 9.2 mph - N/A   Clear
11:14 AM 51.8 °F - 28.4 °F 41% 29.81 in 10.0 mi South 6.9 mph - N/A   Clear
11:33 AM 51.8 °F - 28.4 °F 41% 29.81 in 10.0 mi South 6.9 mph - N/A   Clear
11:53 AM 51.8 °F - 28.4 °F 41% 29.80 in 10.0 mi South 5.8 mph - N/A   Clear
12:13 PM 51.8 °F - 28.4 °F 41% 29.80 in 10.0 mi South 5.8 mph - N/A   Clear
12:33 PM 53.6 °F - 28.4 °F 38% 29.80 in 10.0 mi SSW 3.5 mph - N/A   Clear
12:54 PM 53.6 °F - 28.4 °F 38% 29.79 in 10.0 mi SW 4.6 mph - N/A   Clear
1:14 PM 53.6 °F - 28.4 °F 38% 29.79 in 10.0 mi SW 4.6 mph - N/A   Clear
1:34 PM 51.8 °F - 30.2 °F 44% 29.80 in 10.0 mi WSW 6.9 mph - N/A   Clear
1:53 PM 51.8 °F - 30.2 °F 44% 29.80 in 10.0 mi NW 8.1 mph - N/A   Clear
2:13 PM 51.8 °F - 30.2 °F 44% 29.80 in 10.0 mi WNW 6.9 mph - N/A   Clear
2:34 PM 51.8 °F - 32.0 °F 47% 29.80 in 10.0 mi NW 10.4 mph - N/A   Clear
2:53 PM 48.2 °F - 32.0 °F 54% 29.81 in 10.0 mi NNW 12.7 mph - N/A   Clear
3:14 PM 48.2 °F - 32.0 °F 54% 29.81 in 10.0 mi NNW 11.5 mph - N/A   Clear
3:33 PM 48.2 °F - 32.0 °F 54% 29.81 in 10.0 mi NNW 10.4 mph - N/A   Clear
3:53 PM 46.4 °F 41.5 °F 32.0 °F 57% 29.82 in 10.0 mi NNW 10.4 mph - N/A   Clear
4:13 PM 44.6 °F 38.4 °F 30.2 °F 57% 29.82 in 10.0 mi NNW 12.7 mph - N/A   Clear
4:33 PM 42.8 °F 37.0 °F 30.2 °F 61% 29.84 in 10.0 mi NNW 10.4 mph - N/A   Clear
4:53 PM 39.2 °F 33.0 °F 30.2 °F 70% 29.85 in 10.0 mi NNW 9.2 mph - N/A   Clear
5:13 PM 39.2 °F 31.6 °F 30.2 °F 70% 29.86 in 10.0 mi NNW 12.7 mph - N/A   Clear
5:33 PM 37.4 °F 31.4 °F 30.2 °F 75% 29.87 in 10.0 mi NNW 8.1 mph - N/A   Clear
5:53 PM 35.6 °F 28.0 °F 28.4 °F 75% 29.89 in 10.0 mi NNW 10.4 mph - N/A   Clear
6:13 PM 35.6 °F 26.2 °F 28.4 °F 75% 29.90 in 10.0 mi NNW 15.0 mph - N/A   Clear
6:34 PM 33.8 °F 26.4 °F 28.4 °F 81% 29.91 in 10.0 mi NNW 9.2 mph - N/A   Clear
6:54 PM 33.8 °F 25.8 °F 28.4 °F 81% 29.93 in 10.0 mi NNW 10.4 mph - N/A   Clear
7:13 PM 32.0 °F 24.8 °F 26.6 °F 80% 29.94 in 10.0 mi NW 8.1 mph - N/A   Clear
7:33 PM 30.2 °F 21.3 °F 26.6 °F 86% 29.95 in 10.0 mi NNW 10.4 mph - N/A   Clear
7:54 PM 30.2 °F 20.8 °F 26.6 °F 86% 29.95 in 10.0 mi NNW 11.5 mph 17.3 mph N/A   Clear
8:13 PM 30.2 °F 19.8 °F 26.6 °F 86% 29.96 in 10.0 mi NNW 13.8 mph - N/A   Clear
8:33 PM 30.2 °F 18.5 °F 26.6 °F 86% 29.98 in 10.0 mi NNW 17.3 mph 20.7 mph N/A   Clear
8:54 PM 30.2 °F 18.9 °F 26.6 °F 86% 29.98 in 7.0 mi NNW 16.1 mph - N/A   Scattered Clouds
9:13 PM 30.2 °F 18.1 °F 26.6 °F 86% 29.99 in 7.0 mi NNW 18.4 mph 25.3 mph N/A   Mostly Cloudy
9:33 PM 30.2 °F 18.9 °F 26.6 °F 86% 30.00 in 10.0 mi NNW 16.1 mph 24.2 mph N/A   Overcast
9:54 PM 30.2 °F 18.1 °F 26.6 °F 86% 30.02 in 10.0 mi NNW 18.4 mph - N/A   Overcast
10:13 PM 30.2 °F 18.1 °F 24.8 °F 80% 30.04 in 10.0 mi NNW 18.4 mph 23.0 mph N/A   Overcast
10:33 PM 28.4 °F 15.8 °F 24.8 °F 86% 30.05 in 10.0 mi NNW 18.4 mph 24.2 mph N/A   Overcast
10:54 PM 28.4 °F 16.2 °F 24.8 °F 86% 30.06 in 10.0 mi NNW 17.3 mph 23.0 mph N/A   Overcast
11:13 PM 28.4 °F 15.8 °F 24.8 °F 86% 30.08 in 10.0 mi NNW 18.4 mph 23.0 mph N/A   Overcast
11:33 PM 28.4 °F 14.4 °F 23.0 °F 80% 30.08 in 10.0 mi NNW 23.0 mph 26.5 mph N/A   Overcast
11:53 PM 26.6 °F 11.7 °F 21.2 °F 80% 30.10 in 10.0 mi NW 24.2 mph 28.8 mph N/A   Overcast